Tinker AFB, OK

4:23 AM CST on December 13, 2017 (GMT -0600)
Tinker Air Force Base

Weather History for KTIK - March, 2014

Change the Weather History Date:

Thursday, March 27, 2014

  Actual Average Record
Temperature  
Mean Temperature 66 °F -  
Max Temperature 80 °F 63 °F 85 °F (2008)
Min Temperature 54 °F 43 °F 32 °F (2009)
Cooling Degree Days 2    
Growing Degree Days 16 (Base 50)    
Moisture  
Dew Point 48 °F    
Average Humidity 67    
Maximum Humidity 100    
Minimum Humidity 14    
Precipitation  
Precipitation 0.64 in - - ()
Sea Level Pressure  
Sea Level Pressure 29.66 in    
Wind  
Wind Speed 26 mph (SSW)    
Max Wind Speed 37 mph    
Max Gust Speed 45 mph    
Visibility 10 miles    
Events      
Averages and records for this station are not official NWS values.
T = Trace of Precipitation, MM = Missing Value Source: NWS Daily Summary

Daily Weather History Graph

Daily Weather History Graph

Search for Another Location

Airport or City:

Trip Planner

Search our weather history database for the weather conditions in past years. The results will help you decide how hot, cold, wet, or windy it might be!

Date:

Astronomy

Mar. 27, 2014 Rise Set
Actual Time 7:23 AM CDT 7:47 PM CDT
Civil Twilight 6:57 AM CDT 8:12 PM CDT
Nautical Twilight 6:27 AM CDT 8:42 PM CDT
Astronomical Twilight 5:57 AM CDT 9:13 PM CDT
Moon 5:08 AM CDT (3/27) 4:42 PM CDT (3/27)
Length of Visible Light 13h 14m
Length of Day
12h 23m
Waning Crescent, 13% of the Moon is Illuminated
Mar 27
Waning Crescent
Mar 30
New
Apr 7
First Quarter
Apr 15
Full
Apr 22
Last Quarter

Hourly Weather History & Observations

Time (CDT) Temp. Dew Point Humidity Pressure Visibility Wind Dir Wind Speed Gust Speed Precip Events Conditions
12:56 AM 55.4 °F 48.2 °F 77% 29.71 in 10.0 mi South 26.5 mph 39.1 mph N/A   Overcast
12:58 AM 54.5 °F 48.7 °F 81% 29.73 in 10.0 mi South 26.5 mph 35.7 mph N/A   Overcast
12:59 AM 55.4 °F 48.2 °F 77% 29.71 in 10.0 mi South 28.8 mph 35.7 mph N/A   Overcast
1:00 AM 55.4 °F 48.2 °F 77% 29.71 in 10.0 mi South 27.6 mph 35.7 mph N/A   Overcast
1:05 AM 55.4 °F 50.0 °F 82% 29.71 in 10.0 mi South 23.0 mph 35.7 mph N/A   Overcast
1:09 AM 55.4 °F 50.0 °F 82% 29.71 in 10.0 mi South 27.6 mph 39.1 mph N/A   Overcast
1:24 AM 55.4 °F 50.0 °F 82% 29.71 in 10.0 mi South 27.6 mph 39.1 mph N/A   Overcast
1:26 AM 55.4 °F 50.0 °F 82% 29.70 in 10.0 mi South 29.9 mph 39.1 mph N/A   Overcast
1:58 AM 55.6 °F 50.9 °F 84% 29.72 in 10.0 mi South 27.6 mph 35.7 mph N/A   Overcast
2:58 AM 55.9 °F 51.3 °F 84% 29.70 in 10.0 mi South 27.6 mph 36.8 mph N/A   Overcast
3:47 AM 55.4 °F 51.8 °F 88% 29.67 in 10.0 mi South 24.2 mph 34.5 mph N/A   Overcast
3:58 AM 55.9 °F 52.2 °F 87% 29.69 in 10.0 mi South 24.2 mph 33.4 mph N/A   Overcast
4:58 AM 55.4 °F 54.3 °F 96% 29.67 in 10.0 mi South 20.7 mph 33.4 mph N/A   Overcast
5:00 AM 55.4 °F 55.4 °F 100% 29.65 in 10.0 mi South 20.7 mph 33.4 mph N/A   Overcast
5:58 AM 55.8 °F 55.6 °F 99% 29.65 in 10.0 mi South 25.3 mph 31.1 mph N/A   Overcast
6:58 AM 56.7 °F 56.1 °F 98% 29.64 in 10.0 mi South 21.9 mph 33.4 mph N/A   Overcast
7:16 AM 57.2 °F 55.4 °F 94% 29.63 in 10.0 mi South 25.3 mph 33.4 mph N/A   Overcast
7:58 AM 57.7 °F 56.3 °F 95% 29.66 in 10.0 mi South 24.2 mph 34.5 mph 0.01 in   Overcast
8:58 AM 59.2 °F 56.7 °F 91% 29.66 in 10.0 mi South 23.0 mph 31.1 mph N/A   Overcast
9:05 AM 59.0 °F 57.2 °F 94% 29.65 in 10.0 mi South 24.2 mph 29.9 mph N/A   Mostly Cloudy
9:10 AM 60.8 °F 57.2 °F 88% 29.65 in 10.0 mi South 25.3 mph 33.4 mph N/A   Mostly Cloudy
9:45 AM 62.6 °F 57.2 °F 82% 29.63 in 10.0 mi South 27.6 mph 36.8 mph N/A   Mostly Cloudy
9:58 AM 62.8 °F 57.0 °F 81% 29.64 in 10.0 mi South 28.8 mph 36.8 mph N/A   Overcast
10:21 AM 62.6 °F 57.2 °F 82% 29.62 in 10.0 mi South 31.1 mph 39.1 mph N/A   Mostly Cloudy
10:27 AM 64.4 °F 57.2 °F 77% 29.62 in 10.0 mi South 36.8 mph 44.9 mph N/A   Mostly Cloudy
10:33 AM 64.4 °F 57.2 °F 77% 29.61 in 10.0 mi South 31.1 mph 44.9 mph N/A   Mostly Cloudy
10:49 AM 66.2 °F 57.2 °F 73% 29.61 in 10.0 mi SSW 29.9 mph 41.4 mph N/A   Scattered Clouds
10:58 AM 66.9 °F 57.0 °F 70% 29.61 in 10.0 mi SSW 33.4 mph 42.6 mph 0.06 in   Scattered Clouds
11:58 AM 71.2 °F 55.2 °F 57% 29.59 in 10.0 mi SSW 36.8 mph 43.7 mph 0.25 in   Clear
12:58 PM 74.8 °F 50.4 °F 42% 29.58 in 10.0 mi SSW 33.4 mph 43.7 mph 0.27 in   Scattered Clouds
1:58 PM 77.4 °F 41.9 °F 28% 29.58 in 10.0 mi SW 33.4 mph 42.6 mph 0.03 in   Clear
2:58 PM 79.2 °F 33.6 °F 19% 29.57 in 10.0 mi WSW 25.3 mph 38.0 mph N/A   Clear
3:58 PM 79.9 °F 28.0 °F 15% 29.57 in 10.0 mi WSW 26.5 mph 38.0 mph 0.02 in   Clear
4:58 PM 79.0 °F 29.7 °F 16% 29.58 in 10.0 mi WSW 21.9 mph 31.1 mph N/A   Clear
5:58 PM 79.2 °F 25.2 °F 14% 29.60 in 10.0 mi WSW 23.0 mph 29.9 mph N/A   Clear
6:47 PM 78.8 °F 28.4 °F 16% 29.63 in 10.0 mi NW 12.7 mph - N/A   Clear
6:51 PM 77.0 °F 30.2 °F 18% 29.63 in 10.0 mi WNW 15.0 mph 21.9 mph N/A   Clear
6:58 PM 76.8 °F 39.2 °F 26% 29.63 in 10.0 mi NW 15.0 mph 21.9 mph N/A   Clear
8:58 PM 66.4 °F 42.6 °F 42% 29.70 in 10.0 mi North 10.4 mph - N/A   Clear
9:58 PM 63.9 °F 42.8 °F 46% 29.75 in 10.0 mi North 9.2 mph - N/A   Clear
10:58 PM 61.7 °F 42.1 °F 49% 29.78 in 10.0 mi North 12.7 mph - N/A   Clear
11:58 PM 58.1 °F 41.2 °F 53% 29.80 in 10.0 mi NNE 10.4 mph - N/A   Clear